DW9040 Weather Reports


time (UTC)temp
F
wind
direction
speed
knots
gust
knots
rain 1hr
in
rain 24hr
in
rain mn
in
humidity
%
barometer
mb
20260507173501 57 115 0.9 2.6 0.00 0.43 0.12 73 1011.3
20260507171957 57 102 0.9 5.2 0.00 0.43 0.12 65 1011.5
20260507170500 57 118 1.7 3.5 0.00 0.43 0.12 63 1011.6
20260507164946 56 86 1.7 4.3 0.00 0.43 0.12 70 1011.8
20260507163449 56 122 0.9 2.6 0.00 0.43 0.12 71 1012.2
20260507161944 56 49 0.9 6.1 0.00 0.43 0.12 61 1012.6
20260507160519 56 78 2.6 7.8 0.00 0.43 0.12 59 1012.3
20260507154955 56 46 3.5 6.1 0.00 0.43 0.12 61 1012.4
20260507153454 56 5 0.9 3.5 0.00 0.43 0.12 62 1012.6
20260507151956 54 67 0.9 3.5 0.00 0.43 0.12 69 1012.5
20260507150459 54 56 1.7 3.5 0.00 0.43 0.12 70 1012.7
20260507145012 55 46 2.6 4.3 0.00 0.47 0.12 71 1012.8
20260507143451 54 92 2.6 3.5 0.00 0.47 0.12 74 1013.1
20260507142003 54 51 1.7 3.5 0.00 0.47 0.12 73 1013.3
20260507140524 54 15 1.7 3.5 0.00 0.47 0.12 76 1013.3
20260507134956 54 67 1.7 4.3 0.00 0.49 0.12 78 1013.4
20260507133459 54 87 1.7 5.2 0.00 0.49 0.12 82 1013.5
20260507132001 54 58 1.7 4.3 0.00 0.49 0.12 83 1013.4
20260507130503 54 60 1.7 4.3 0.00 0.49 0.12 84 1013.3
20260507125000 54 37 1.7 3.5 0.00 0.56 0.12 83 1013.3
20260507123448 54 30 1.7 4.3 0.00 0.56 0.12 83 1013.2
20260507122000 54 59 1.7 5.2 0.00 0.56 0.12 83 1013.0
20260507120501 54 49 1.7 3.5 0.00 0.56 0.12 84 1013.1
20260507114956 54 44 2.6 7.0 0.00 0.57 0.12 85 1012.5
20260507113459 54 53 1.7 3.5 0.00 0.57 0.12 85 1012.7
20260507111959 54 17 2.6 4.3 0.00 0.57 0.12 86 1012.4
20260507110446 53 30 0.0 0.0 0.00 0.57 0.12 90 1012.5
20260507105002 53 17 0.0 0.0 0.00 0.57 0.12 91 1012.6
20260507103502 53 59 0.0 0.0 0.00 0.57 0.12 92 1012.2
20260507101957 53 40 0.0 0.0 0.00 0.57 0.12 91 1012.3
20260507100501 53 27 0.0 0.0 0.00 0.57 0.12 92 1012.1
20260507094958 53 27 0.0 0.0 0.00 0.57 0.12 92 1011.9
20260507093459 54 60 0.0 0.0 0.00 0.57 0.12 92 1011.9
20260507092002 54 60 0.0 2.6 0.00 0.57 0.12 92 1012.0
20260507090503 54 55 0.0 1.7 0.00 0.57 0.12 92 1011.8
20260507084955 54 67 0.9 1.7 0.00 0.57 0.12 92 1011.6
20260507083503 54 57 0.0 2.6 0.00 0.57 0.12 92 1011.7
20260507082001 54 55 0.0 0.0 0.00 0.57 0.12 92 1011.7
20260507080524 54 53 0.0 0.0 0.00 0.57 0.12 92 1011.7
20260507074957 54 45 0.9 4.3 0.00 0.57 0.12 91 1011.2
20260507073511 54 59 1.7 3.5 0.00 0.57 0.12 91 1010.9
20260507071953 55 80 2.6 4.3 0.00 0.57 0.12 91 1010.9
20260507070522 55 65 1.7 3.5 0.00 0.57 0.12 91 1010.9
20260507065011 56 69 0.9 3.5 0.00 0.57 0.12 91 1011.1
20260507063529 56 65 3.5 6.1 0.00 0.57 0.12 90 1010.9
20260507061956 56 16 3.5 6.1 0.01 0.57 0.12 91 1011.1
20260507060456 57 42 2.6 6.1 0.02 0.57 0.12 91 1011.5
20260507054956 57 26 3.5 7.8 0.04 0.57 0.12 92 1011.0
20260507053510 58 65 2.6 7.0 0.08 0.57 0.12 93 1010.2
20260507052000 57 38 0.0 0.0 0.08 0.56 0.11 93 1010.5
20260507050446 58 69 0.9 3.5 0.08 0.55 0.10 93 1010.7
20260507044944 58 40 0.9 2.6 0.18 0.53 0.08 93 1010.3
20260507043446 58 69 0.0 3.5 0.34 0.49 0.04 93 1010.9
20260507041945 58 71 0.9 4.3 0.33 0.48 0.03 92 1010.8
20260507040448 59 67 2.6 6.1 0.32 0.47 0.02 90 1011.1
20260507035001 61 17 5.2 9.6 0.20 0.35 0.35 86 1010.8
20260507033445 63 5 2.6 6.1 0.00 0.15 0.15 85 1010.1
20260507031942 64 26 2.6 5.2 0.00 0.15 0.15 86 1010.0
20260507030446 65 355 1.7 7.8 0.00 0.15 0.15 89 1010.2
20260507024943 65 331 0.0 2.6 0.00 0.15 0.15 91 1010.0
20260507023446 65 56 0.0 1.7 0.00 0.15 0.15 91 1009.6
20260507022003 65 40 0.9 2.6 0.00 0.15 0.15 91 1009.7
20260507020502 65 5 1.7 3.5 0.01 0.15 0.15 91 1009.5
20260507014958 66 67 0.0 1.7 0.01 0.15 0.15 90 1008.9
20260507013453 66 48 0.9 2.6 0.01 0.15 0.15 89 1009.5
20260507011951 66 282 0.0 0.0 0.01 0.15 0.15 89 1009.7
20260507010458 66 210 0.0 0.0 0.00 0.14 0.14 86 1009.6
20260507005012 67 210 0.0 0.0 0.00 0.14 0.14 85 1009.5
20260507003452 67 210 0.0 0.0 0.00 0.14 0.14 83 1009.2
20260507002003 68 210 0.0 0.9 0.00 0.14 0.14 80 1008.8
20260507000450 69 226 1.7 3.5 0.00 0.14 0.14 78 1008.9
20260506235004 70 214 0.9 4.3 0.00 0.14 0.14 77 1008.8
20260506233444 71 193 4.3 7.8 0.00 0.14 0.14 76 1008.5
20260506231945 71 248 4.3 7.8 0.00 0.14 0.14 75 1008.2
20260506230445 71 192 3.5 7.0 0.00 0.14 0.14 74 1008.2
20260506225000 72 211 2.6 6.1 0.00 0.14 0.14 75 1008.3
20260506223444 72 178 2.6 8.7 0.00 0.14 0.14 74 1008.2
20260506221946 72 225 4.3 8.7 0.00 0.14 0.14 73 1008.3
20260506220502 72 244 1.7 6.1 0.00 0.14 0.14 74 1008.2
20260506214956 72 184 3.5 6.1 0.00 0.14 0.14 73 1008.1
20260506213501 71 204 5.2 8.7 0.00 0.14 0.14 74 1008.2
20260506211958 71 209 3.5 7.8 0.00 0.14 0.14 75 1008.3
20260506210522 70 214 4.3 9.6 0.00 0.14 0.14 75 1008.1
20260506204939 70 229 3.5 11.3 0.00 0.14 0.14 75 1008.0
20260506203504 70 202 6.1 11.3 0.00 0.14 0.14 75 1008.0
20260506202000 70 242 5.2 11.3 0.00 0.14 0.14 77 1008.1
20260506200506 69 245 7.8 13.9 0.00 0.14 0.14 77 1008.0
20260506195006 69 205 5.2 8.7 0.00 0.14 0.14 78 1008.0
20260506193502 69 233 5.2 11.3 0.00 0.14 0.14 79 1008.1
20260506191958 68 279 5.2 12.2 0.00 0.14 0.14 80 1008.3
20260506190445 67 207 5.2 9.6 0.00 0.14 0.14 80 1008.6
20260506185003 67 191 2.6 10.4 0.00 0.14 0.14 81 1008.8
20260506183502 67 243 4.3 16.5 0.00 0.14 0.14 81 1009.2
20260506181943 67 271 5.2 10.4 0.00 0.14 0.14 81 1009.2
20260506180444 66 241 4.3 9.6 0.00 0.14 0.14 82 1009.1
20260506174940 66 250 4.3 8.7 0.00 0.14 0.14 82 1009.0